Location: Berkeley
(37.8716°N, 122.2727°W)
Time: 00:06:10
(UTC-07:00)

Envisat - Visible Passes

Search period start: 29 June 2017 00:00
Search period end: 09 July 2017 00:00
Orbit: 764 x 766 km, 98.2° (Epoch: 28 June)

Date Brightness Start Highest point End Pass type
(mag) Time Alt. Az. Time Alt. Az. Time Alt. Az.
29 Jun 4.0 21:39:20 10° S 21:44:10 44° W 21:49:02 10° NNW visible
30 Jun 3.0 21:02:23 10° SSE 21:07:26 80° ENE 21:12:32 10° N visible
30 Jun 5.9 22:46:39 10° W 22:46:59 10° W 22:47:19 10° W visible
01 Jul 5.0 22:05:49 10° SSW 22:09:55 25° W 22:14:04 10° NW visible
02 Jul 3.6 21:28:04 10° S 21:33:03 57° W 21:38:04 10° NNW visible
03 Jul 5.6 22:33:19 10° WSW 22:35:47 13° W 22:38:14 10° WNW visible
04 Jul 4.6 21:54:17 10° SSW 21:58:46 31° W 22:03:16 10° NW visible
05 Jul 3.2 21:16:54 10° S 21:21:57 74° WSW 21:27:03 10° NNW visible
06 Jul 5.4 22:21:15 10° SW 22:24:34 17° W 22:27:56 10° NW visible
07 Jul 4.2 21:42:53 10° SSW 21:47:37 40° W 21:52:24 10° NNW visible
08 Jul 3.0 21:05:48 10° SSE 21:10:52 87° ENE 21:15:58 10° NNW visible
